Home > Weather > Pretoria > Past weeks

Flag for South Africa Past Weather in Pretoria, South Africa — Yesterday and Last 2 Weeks

Now
37 °F

Chilly.


Feels Like: 37 °F
Forecast: 37 / 69 °F
Wind: 1 mph from Southeast

Location: Waterkloof Lmb

Current Time: Jun 30, 2016 at 7:05:44 AM

Latest Report: Jun 30, 2016 at 6:00 AM


Visibility: N/A

Pressure: 30.39 "Hg (25.75 "Hg at 1338m altitude)

Humidity: 75%

Dew Point: 30 °F

Location of PretoriaLocation

Past Weather in Pretoria — Graph

°F

Pretoria Temperature Yesterday

Maximum temperature yesterday: 68 °F (at 3:00 PM)
Minimum temperature yesterday: 37 °F (at 6:00 AM)
Average temperature yesterday: 52 °F

High & Low Weather Summary for the Past Weeks

 TemperatureHumidityPressure
High72 °F (Jun 19, 2:00 PM)94% (Jun 16, 8:00 AM)30.69 "Hg (Jun 16, 8:00 AM)
Low36 °F (Jun 28, 7:00 AM)17% (Jun 28, 3:00 PM)30.24 "Hg (Jun 16, 2:00 AM)
Average55 °F56%30.37 "Hg
* Reported Jun 15 5:00 AM — Jun 30 5:00 AM, Pretoria, Weather by CustomWeather, © 2016

Note: Actual official high and low records may vary slightly from our data, if they occured in-between our weather recording intervals... More about our weather records

Advertising

Pretoria Weather History for the Previous 24 Hours

Scroll right to see more
 ConditionsComfort  
Time TempWeatherWind HumidityBarometerVisibility
5:00 AM
Thu, Jun 30
36 °FChilly.2 mph81%30.39 "HgN/A
4:00 AM36 °FChilly.2 mph75%30.36 "HgN/A
3:00 AM37 °FChilly.3 mph75%30.39 "HgN/A
2:00 AM39 °FChilly.3 mph70%30.39 "HgN/A
1:00 AM39 °FChilly.2 mph70%30.39 "HgN/A
12:00 AM39 °FChilly.2 mph75%30.42 "HgN/A
11:00 PM
Wed, Jun 29
43 °FQuite cool.2 mph66%30.42 "HgN/A
10:00 PM45 °FQuite cool.1 mph61%30.42 "HgN/A
9:00 PM46 °FCool.1 mph57%30.42 "HgN/A
8:00 PM48 °FCool.No wind50%30.42 "HgN/A
7:00 PM50 °FCool.1 mph50%30.39 "HgN/A
6:00 PM55 °FRefreshingly cool.3 mph38%30.39 "HgN/A
5:00 PM63 °FMild.5 mph30%30.39 "HgN/A
4:00 PM66 °FMild.6 mph26%30.39 "HgN/A
3:00 PM68 °FMild.5 mph26%30.36 "HgN/A
2:00 PM66 °FMild.7 mph26%30.39 "HgN/A
1:00 PM66 °FMild.7 mph26%30.39 "HgN/A
12:00 PM63 °FSunny.6 mph27%30.51 "Hg10 mi
11:00 AM61 °FRefreshingly cool.3 mph34%30.45 "HgN/A
10:00 AM59 °FRefreshingly cool.3 mph39%30.45 "HgN/A
9:00 AM55 °FRefreshingly cool.3 mph47%30.45 "HgN/A
8:00 AM45 °FQuite cool.2 mph61%30.45 "HgN/A
Weather by CustomWeather, © 2016

See weather overviewHow to use our weather pages